Location: Central Coast NSW, Australia
(33.2407°S, 151.4316°E)
Time: 20:05:27
(UTC+11:00)

Tiangong 2 - Visible Passes

Search period start: 18 February 2018 00:00
Search period end: 28 February 2018 00:00
Orbit: 385 x 388 km, 42.8° (Epoch: 17 February)

Date Brightness Start Highest point End Pass type
(mag) Time Alt. Az. Time Alt. Az. Time Alt. Az.
18 Feb 2.1 04:40:01 45° SSE 04:40:01 45° SSE 04:42:27 10° SE visible
19 Feb 2.9 05:16:05 19° SW 05:17:19 24° SSW 05:20:02 10° SE visible
20 Feb 3.7 04:19:52 21° SSE 04:19:52 21° SSE 04:21:15 10° SE visible
20 Feb 3.6 05:53:34 10° SW 05:55:38 16° S 05:57:42 10° SE visible
21 Feb 3.3 04:55:53 17° SSW 04:56:26 18° S 04:58:47 10° SE visible
22 Feb 4.6 03:59:39 12° SE 03:59:39 12° SE 03:59:58 10° SE visible
22 Feb 3.8 05:32:51 10° SW 05:34:49 15° S 05:36:46 10° SE visible
23 Feb 3.8 04:35:42 15° S 04:35:42 15° S 04:37:37 10° SE visible
23 Feb 3.6 06:10:44 10° SW 06:13:09 19° SSE 06:15:34 10° ESE visible
24 Feb 3.8 05:11:49 10° SW 05:13:57 16° S 05:16:03 10° SE visible
25 Feb 4.3 04:15:42 13° SSE 04:15:42 13° SSE 04:16:39 10° SE visible
25 Feb 3.2 05:49:25 10° SW 05:52:11 26° SSE 05:54:58 10° ESE visible
26 Feb 3.5 04:51:59 17° SSW 04:53:01 19° SSE 04:55:26 10° ESE visible
27 Feb 2.4 05:28:25 13° SW 05:31:07 40° SSE 05:34:11 10° E visible
